Wind_Speed
14 13 12 11 10 8 5 6 12 17 17 16 14 14 13 12 11 11 11 11 11 11 10 10 10 10 9 9 9 9 9 9 10 10 9 9 9 8 8 7 6 5 4 3 1 0 0 1 2
14 14 13 11 9 5 2 9 16 19 18 15 14 15 14 13 13 13 12 12 12 12 12 12 12 11 11 11 11 11 11 11 11 11 11 11 11 10 9 9 7 7 6 4 3 2 2 1 1
15 14 13 11 8 4 5 15 20 21 18 16 15 16 14 13 13 13 13 13 13 13 14 14 13 13 13 13 13 13 13 12 13 13 13 13 13 12 11 11 10 9 7 6 5 4 3 3 3
16 15 13 11 8 6 13 20 22 21 18 17 17 15 14 13 13 13 12 13 13 13 13 14 15 15 14 14 15 14 14 14 15 15 15 15 15 14 13 13 12 11 10 9 7 6 5 5 5
16 15 13 11 8 12 19 22 23 19 18 16 17 16 15 14 14 13 13 14 13 12 13 14 15 16 16 16 16 16 16 16 16 17 17 17 17 16 15 14 14 13 12 11 9 8 8 7 7
15 14 12 9 9 17 23 25 22 18 20 18 18 17 16 14 14 14 14 14 14 13 14 15 16 16 17 17 17 18 18 18 18 18 19 19 19 18 17 16 16 15 14 13 11 10 10 9 9
15 15 11 8 12 21 24 23 19 18 18 19 18 16 15 14 14 14 14 15 15 15 16 16 16 16 18 18 18 19 20 20 20 20 20 20 20 20 19 18 17 17 16 15 14 13 12 12 11
15 15 12 11 15 21 25 22 19 20 21 19 16 16 14 13 14 14 15 16 16 16 17 17 17 18 19 19 20 20 21 21 21 22 22 22 22 21 21 20 19 18 18 17 16 15 14 14 13
14 14 11 10 16 22 25 21 21 20 21 19 18 17 14 13 14 15 16 17 18 17 17 18 18 19 20 21 21 21 22 23 23 24 24 24 24 23 23 22 21 20 20 19 18 17 17 16 15
14 12 10 14 19 23 23 21 19 20 21 21 19 15 15 15 15 16 16 18 18 18 18 18 19 20 21 22 23 23 23 25 25 25 26 26 26 25 24 24 23 22 22 20 20 19 19 18 17
16 14 15 22 24 23 21 20 19 19 20 20 18 14 15 16 16 17 17 18 18 19 19 19 20 20 21 22 24 24 24 25 25 26 26 27 27 27 25 25 24 24 23 22 22 21 20 19 18
18 18 20 23 24 23 20 18 17 19 19 17 15 15 16 17 17 18 19 19 19 19 19 20 21 21 21 23 24 23 24 25 26 26 27 28 28 28 26 25 25 25 25 24 23 22 21 21 20
18 20 22 22 21 22 21 21 19 17 17 18 18 17 16 18 19 19 19 19 20 20 21 21 21 22 22 22 23 25 25 26 25 25 27 27 28 28 28 27 27 27 26 25 24 23 23 22 21
16 19 20 20 20 21 21 21 20 18 18 18 18 16 17 19 19 19 19 20 21 21 20 20 21 22 22 23 24 25 26 26 26 27 28 28 28 29 28 28 29 28 27 26 25 24 23 23 22
17 18 18 18 18 18 18 19 20 20 18 18 17 17 18 19 19 20 20 21 21 21 21 20 20 21 22 22 24 25 25 25 25 26 26 26 27 27 28 28 27 27 28 27 26 25 25 23 22
15 16 17 17 16 16 16 20 20 19 17 17 17 18 19 19 19 20 20 21 21 21 21 21 21 21 22 22 23 24 24 24 25 26 27 26 27 27 27 28 26 25 25 26 26 25 25 24 22
13 16 17 16 14 14 17 20 20 17 17 17 18 18 18 19 20 20 20 21 21 21 22 22 22 23 22 22 22 23 24 24 25 26 26 26 27 27 26 25 25 24 23 24 24 25 25 24 23
12 14 15 15 15 14 17 20 20 16 16 16 17 18 18 19 20 19 20 20 20 21 21 21 21 22 23 23 24 24 24 25 25 25 25 25 25 25 25 25 24 24 24 24 23 23 23 24 23
11 12 15 15 17 15 18 19 19 17 16 16 18 19 19 18 18 19 20 20 20 20 20 21 21 22 23 24 24 25 25 25 25 25 25 25 25 24 24 24 24 24 24 23 23 22 23 23 23
12 13 15 16 17 16 17 17 17 16 16 16 18 18 18 17 18 20 19 19 20 20 20 21 22 23 24 24 25 25 24 25 24 23 23 23 23 23 23 23 23 23 23 23 23 23 23 22 23
12 14 15 15 16 15 16 17 17 16 17 17 18 19 19 18 19 20 20 20 21 21 21 22 23 24 24 25 25 24 24 23 22 22 22 22 22 22 22 23 23 23 23 23 22 23 23 23 23
14 14 15 15 17 19 19 19 19 18 17 18 19 19 19 19 19 20 21 21 22 22 22 22 23 23 24 24 23 23 22 21 21 21 22 22 22 22 23 22 22 23 23 23 23 24 24 24 23
12 14 14 15 17 19 19 19 20 19 21 20 19 19 19 20 19 20 21 21 22 22 22 22 22 23 23 23 22 21 21 21 20 21 21 21 21 21 21 22 22 23 23 23 24 24 24 25 24
12 13 14 16 19 20 20 20 21 21 20 19 19 19 18 20 21 21 21 21 21 22 22 23 23 23 23 22 22 21 21 21 21 21 21 20 21 21 22 22 23 23 23 24 25 25 25 25 25
13 13 14 16 19 19 19 21 22 22 21 19 19 18 18 21 22 22 22 22 23 24 24 24 24 24 24 24 23 24 23 22 21 20 20 21 21 22 22 23 23 24 24 25 25 26 26 26 26
14 14 15 16 17 16 18 21 21 18 18 19 18 19 20 21 22 23 24 24 24 25 26 26 25 25 25 25 25 24 24 23 22 21 22 22 22 23 24 24 24 25 25 25 25 25 26 26 26
13 14 16 17 17 16 18 18 18 17 17 17 18 20 21 22 24 25 25 25 26 26 27 27 27 27 27 26 26 25 25 25 25 24 25 25 24 25 25 26 26 26 27 27 27 26 27 27 27
13 14 16 16 16 16 16 18 18 18 17 18 19 21 22 24 25 26 26 27 28 28 28 28 28 28 28 27 27 27 27 27 27 26 26 26 26 27 27 28 28 27 27 28 28 28 29 28 28
15 14 16 16 15 16 17 19 18 18 18 19 19 22 24 25 27 26 28 28 28 28 28 28 28 28 28 28 28 28 28 27 27 27 27 27 27 28 28 28 28 29 29 29 29 30 30 30 30
14 14 16 17 18 18 20 21 20 20 21 21 22 24 26 26 27 28 27 27 28 28 27 28 28 28 28 28 28 28 28 28 28 27 27 27 27 28 28 28 28 28 29 29 30 30 30 30 30
Wind_Direction
254 251 248 246 242 235 227 199 222 237 240 240 239 246 252 253 247 251 260 266 270 270 268 265 263 260 255 251 250 247 245 244 244 241 240 239 238 238 238 239 240 238 233 222 213 230 332 24 37
253 251 246 241 234 219 220 223 230 243 249 247 243 251 257 250 253 260 264 267 270 268 267 265 264 263 260 255 252 251 249 249 248 243 240 239 239 239 241 241 241 242 241 239 243 251 265 285 315
250 248 245 236 220 179 214 231 240 252 256 252 249 250 257 253 254 258 263 266 269 267 267 266 265 262 261 258 254 252 251 249 249 246 242 241 241 241 241 241 242 245 246 248 252 256 260 265 270
246 244 240 231 205 196 215 228 241 257 261 258 257 256 254 254 255 257 262 266 268 272 271 268 266 264 261 260 257 255 253 252 250 248 245 243 243 244 244 244 245 246 247 250 253 257 259 262 264
242 239 232 223 206 219 229 234 245 256 263 258 256 256 257 255 256 259 264 267 270 272 271 269 271 269 264 259 257 255 254 252 250 249 248 245 245 245 246 247 247 249 249 250 253 257 261 264 266
235 229 223 214 214 229 239 246 250 253 258 259 256 256 256 256 258 262 265 268 270 273 273 271 270 269 266 261 257 255 253 252 251 249 248 247 246 247 248 249 249 250 252 254 256 257 261 265 268
232 222 209 204 228 241 246 252 255 251 247 250 256 253 254 256 261 265 268 269 271 274 275 272 271 268 262 259 258 255 253 252 251 249 248 247 247 249 250 250 251 252 254 256 258 259 261 265 268
230 226 207 203 228 245 250 251 250 246 248 248 248 256 256 259 265 268 270 273 274 275 277 275 274 270 262 259 259 256 253 253 254 251 249 248 247 249 251 251 252 253 256 257 258 259 262 265 267
225 222 211 210 231 241 250 250 250 246 247 252 252 261 262 263 267 269 272 275 278 277 276 275 275 269 264 261 259 259 256 254 255 253 250 249 249 249 251 252 251 253 256 257 258 260 262 264 266
216 210 211 215 226 239 248 249 249 251 252 254 256 258 261 265 267 270 274 277 279 279 278 278 276 271 267 263 261 260 260 257 255 254 252 251 252 251 251 252 251 252 255 256 258 259 262 264 267
210 206 213 220 224 234 244 247 247 249 252 255 253 257 262 266 269 274 275 276 279 281 282 283 280 274 270 265 260 257 258 258 257 255 256 255 254 252 254 254 253 253 254 256 257 258 261 264 266
212 213 221 226 229 234 239 245 245 245 251 254 255 261 263 269 273 274 276 278 279 283 284 284 280 273 271 268 261 258 260 261 258 256 255 256 256 256 255 253 251 252 255 256 257 257 260 262 262
222 226 227 233 235 237 239 241 244 246 249 252 258 260 263 268 271 274 277 279 283 285 283 282 280 278 275 270 267 265 265 264 261 260 257 257 256 256 254 252 252 253 256 257 257 257 258 261 262
226 232 236 237 238 237 238 243 243 249 251 257 258 256 263 265 269 273 276 280 282 281 277 278 279 278 276 273 270 268 266 264 263 264 261 260 259 258 258 257 256 257 256 257 260 261 262 262 262
224 232 237 235 237 240 242 245 249 248 249 254 257 259 264 267 272 275 277 279 279 279 275 275 276 275 276 274 272 273 271 268 268 267 267 265 262 260 260 259 259 258 257 257 259 262 263 262 262
226 232 234 238 239 241 242 248 246 242 248 253 256 260 264 270 274 276 277 278 278 278 276 274 275 278 278 276 275 275 275 273 272 270 269 267 264 263 260 258 259 261 260 259 261 263 264 262 262
226 231 233 235 240 241 242 246 244 243 249 254 256 262 265 269 273 277 278 278 279 277 275 274 277 278 280 279 279 277 275 273 272 270 272 268 266 265 261 259 260 262 263 264 267 266 265 265 265
227 232 233 230 240 235 240 247 251 246 250 255 262 266 267 269 273 278 278 278 277 274 273 276 279 280 281 281 281 279 276 274 274 273 272 270 267 266 262 262 263 265 267 267 268 270 268 267 266
226 237 234 228 236 230 241 249 247 251 258 261 263 267 270 271 273 277 278 278 278 275 276 277 280 280 282 282 281 283 280 277 277 274 270 269 266 267 265 263 264 266 268 268 269 270 269 269 268
218 235 232 231 241 234 241 248 255 250 260 263 266 269 271 274 276 278 278 279 279 280 280 280 282 281 282 284 283 282 280 276 274 273 271 269 267 266 265 265 267 268 270 271 270 270 271 270 270
217 230 237 232 242 243 246 252 249 259 269 268 269 271 273 275 275 276 279 279 281 282 283 282 283 284 284 283 282 282 281 278 274 271 268 267 266 265 266 268 269 270 271 272 273 272 273 273 271
224 222 233 238 240 243 244 250 250 256 264 267 266 270 274 277 277 278 281 281 282 283 283 282 283 284 284 284 282 280 280 277 274 270 265 264 265 268 270 271 269 269 269 270 271 272 272 274 275
225 224 227 234 239 245 251 255 255 255 263 262 262 266 271 275 277 281 284 283 283 284 285 285 285 285 285 285 284 282 281 277 276 273 269 267 269 272 273 272 273 272 272 272 272 273 273 274 276
223 227 229 234 241 247 252 253 258 265 267 263 262 265 271 276 279 283 285 284 283 285 285 287 288 289 288 288 285 284 283 282 278 275 272 273 274 276 275 274 274 273 274 274 273 273 273 275 276
223 226 236 244 245 251 249 248 256 265 269 266 268 270 278 278 280 283 284 283 285 285 285 286 286 287 288 288 287 286 286 285 280 276 274 275 275 276 276 275 275 275 274 275 274 274 274 274 275
228 227 236 250 256 262 252 252 261 257 266 266 271 274 281 281 282 283 284 285 286 286 285 285 285 286 287 286 285 285 286 283 280 277 274 274 275 275 275 276 276 276 275 275 275 275 274 274 274
241 236 239 249 250 264 262 260 263 259 265 266 272 277 280 281 282 284 285 286 286 287 287 285 284 284 285 284 284 284 284 281 279 277 275 275 275 275 275 275 275 275 274 274 274 274 274 274 274
239 251 244 249 248 261 263 261 265 265 261 270 277 281 282 281 282 284 286 287 286 287 286 284 284 284 283 282 281 283 283 282 279 277 276 276 276 276 276 276 275 274 274 274 274 274 274 273 273
234 245 251 251 252 266 270 272 272 273 280 282 281 283 284 284 285 286 288 288 286 286 285 285 283 283 283 282 281 281 281 282 280 278 279 278 278 278 279 277 276 275 274 274 274 273 273 272 272
240 246 254 255 256 259 271 275 273 279 281 281 282 283 284 285 286 287 287 287 287 286 285 284 283 282 282 281 281 281 281 280 279 278 278 278 279 280 280 279 277 277 277 276 275 275 274 273 273
Height
5887 5888 5890 5892 5895 5897 5899 5902 5903 5900 5900 5900 5900 5899 5900 5901 5901 5904 5902 5902 5903 5903 5903 5904 5904 5904 5905 5905 5906 5906 5906 5907 5907 5907 5907 5907 5907 5907 5908 5907 5907 5907 5907 5906 5906 5906 5906 5905 5905
5885 5886 5889 5891 5893 5895 5899 5900 5899 5897 5897 5898 5898 5898 5899 5899 5900 5900 5900 5900 5901 5902 5902 5902 5903 5903 5903 5903 5904 5904 5905 5905 5906 5906 5906 5906 5906 5906 5906 5906 5906 5906 5906 5906 5906 5906 5905 5905 5905
5882 5884 5887 5889 5892 5894 5900 5899 5895 5893 5895 5895 5896 5897 5898 5897 5898 5898 5899 5899 5899 5900 5901 5901 5901 5901 5901 5902 5902 5902 5903 5903 5904 5904 5904 5904 5905 5905 5905 5905 5905 5905 5905 5905 5905 5905 5905 5905 5905
5880 5883 5885 5888 5890 5893 5895 5893 5891 5891 5892 5892 5893 5894 5895 5895 5896 5897 5897 5897 5898 5898 5898 5898 5899 5899 5899 5899 5900 5900 5900 5901 5901 5902 5902 5903 5903 5903 5903 5903 5904 5904 5904 5904 5904 5904 5904 5904 5904
5877 5880 5883 5885 5888 5891 5890 5889 5888 5890 5889 5889 5889 5890 5892 5893 5894 5894 5894 5895 5896 5896 5896 5896 5897 5897 5897 5897 5897 5897 5898 5898 5899 5899 5900 5901 5901 5901 5901 5902 5902 5902 5902 5902 5903 5903 5903 5903 5903
5875 5877 5881 5883 5887 5888 5886 5886 5887 5888 5886 5886 5887 5888 5888 5890 5891 5891 5892 5892 5893 5894 5894 5894 5894 5894 5894 5894 5894 5894 5895 5895 5896 5896 5897 5898 5899 5899 5899 5899 5900 5900 5900 5901 5901 5901 5902 5902 5902
5873 5874 5877 5882 5886 5885 5883 5882 5885 5884 5883 5883 5883 5883 5885 5887 5889 5889 5889 5889 5890 5891 5891 5891 5891 5891 5891 5891 5891 5891 5892 5892 5893 5893 5894 5895 5896 5896 5897 5897 5897 5898 5898 5899 5899 5900 5900 5900 5900
5869 5872 5874 5879 5883 5882 5879 5879 5881 5881 5881 5880 5879 5881 5883 5885 5886 5887 5887 5886 5887 5888 5888 5888 5888 5888 5888 5888 5888 5888 5888 5889 5889 5890 5891 5891 5892 5893 5894 5894 5895 5895 5896 5896 5897 5897 5898 5898 5898
5866 5870 5872 5877 5880 5878 5874 5876 5877 5876 5878 5878 5877 5879 5881 5882 5883 5884 5884 5884 5884 5885 5885 5885 5885 5885 5885 5885 5885 5885 5885 5885 5886 5886 5887 5887 5888 5889 5890 5891 5891 5892 5893 5893 5894 5895 5895 5896 5896
5864 5867 5871 5874 5875 5872 5871 5872 5873 5873 5874 5874 5875 5876 5878 5880 5880 5881 5881 5880 5881 5881 5881 5881 5881 5881 5880 5880 5880 5881 5881 5881 5881 5882 5883 5883 5884 5885 5886 5887 5888 5888 5889 5890 5891 5892 5892 5893 5894
5860 5863 5865 5867 5868 5868 5868 5868 5869 5869 5870 5870 5871 5874 5876 5877 5878 5877 5877 5877 5877 5878 5877 5878 5877 5877 5876 5876 5875 5876 5877 5877 5877 5878 5878 5879 5880 5881 5881 5882 5884 5885 5886 5886 5887 5888 5889 5890 5890
5857 5859 5860 5862 5864 5865 5865 5865 5865 5865 5867 5868 5867 5870 5872 5874 5874 5874 5874 5874 5874 5874 5874 5874 5873 5872 5872 5871 5870 5871 5872 5872 5872 5872 5873 5875 5875 5876 5877 5878 5879 5881 5882 5883 5884 5884 5885 5886 5886
5853 5855 5856 5858 5860 5861 5862 5863 5861 5862 5864 5866 5866 5868 5869 5870 5871 5871 5871 5871 5871 5870 5870 5870 5869 5867 5867 5867 5867 5866 5867 5867 5867 5868 5867 5869 5871 5872 5872 5874 5875 5876 5877 5878 5879 5879 5881 5881 5881
5851 5852 5853 5855 5856 5857 5858 5859 5858 5860 5861 5863 5862 5864 5866 5866 5867 5868 5868 5868 5867 5867 5866 5866 5866 5864 5863 5863 5863 5862 5862 5863 5864 5865 5864 5864 5865 5867 5868 5869 5870 5871 5872 5874 5875 5875 5877 5878 5878
5847 5849 5850 5851 5852 5854 5855 5855 5856 5857 5859 5860 5860 5861 5862 5862 5863 5864 5864 5864 5864 5863 5862 5862 5862 5860 5860 5859 5859 5858 5858 5858 5859 5860 5860 5860 5860 5861 5863 5864 5865 5866 5867 5869 5870 5871 5873 5873 5874
5844 5846 5847 5849 5850 5851 5854 5852 5851 5852 5855 5857 5857 5859 5859 5859 5860 5861 5861 5860 5860 5859 5859 5858 5858 5857 5856 5856 5855 5854 5854 5854 5854 5855 5855 5855 5856 5856 5857 5858 5860 5861 5862 5864 5865 5867 5868 5869 5870
5841 5842 5844 5845 5847 5849 5850 5848 5848 5848 5852 5853 5853 5855 5856 5856 5857 5857 5857 5856 5856 5855 5855 5854 5854 5853 5852 5852 5850 5850 5849 5850 5850 5850 5850 5850 5851 5852 5852 5853 5854 5855 5857 5858 5860 5861 5863 5864 5865
5840 5842 5842 5844 5845 5847 5846 5845 5846 5846 5847 5848 5850 5851 5852 5853 5853 5853 5853 5852 5852 5851 5851 5850 5850 5849 5848 5847 5846 5846 5845 5845 5845 5845 5845 5845 5846 5847 5847 5848 5850 5850 5851 5853 5854 5856 5857 5858 5859
5839 5841 5841 5842 5842 5844 5844 5842 5843 5843 5844 5845 5847 5848 5848 5848 5848 5848 5848 5848 5848 5847 5847 5846 5846 5845 5844 5843 5842 5841 5841 5840 5840 5840 5840 5840 5840 5841 5842 5843 5844 5845 5846 5847 5848 5850 5851 5852 5853
5838 5839 5839 5840 5840 5841 5841 5840 5841 5840 5842 5844 5844 5843 5844 5845 5845 5845 5845 5845 5844 5844 5843 5842 5841 5840 5839 5838 5837 5836 5836 5836 5835 5834 5835 5835 5835 5836 5837 5838 5839 5840 5842 5842 5843 5844 5845 5846 5847
5836 5838 5838 5839 5839 5839 5839 5840 5839 5839 5841 5841 5841 5841 5841 5842 5842 5842 5842 5841 5840 5840 5839 5838 5837 5836 5834 5833 5832 5831 5831 5831 5830 5829 5830 5830 5830 5831 5832 5833 5834 5835 5836 5837 5838 5839 5840 5840 5842
5833 5836 5837 5837 5839 5839 5839 5837 5835 5836 5838 5839 5839 5838 5837 5837 5838 5838 5838 5837 5836 5836 5835 5833 5832 5831 5830 5829 5828 5827 5826 5826 5825 5824 5825 5825 5825 5826 5826 5827 5828 5829 5831 5832 5833 5833 5834 5835 5835
5831 5833 5835 5836 5836 5836 5835 5834 5834 5833 5834 5834 5834 5833 5834 5834 5834 5834 5833 5832 5832 5831 5830 5829 5828 5826 5825 5824 5823 5822 5821 5821 5820 5820 5820 5820 5820 5820 5821 5821 5822 5824 5825 5826 5827 5827 5828 5828 5829
5830 5831 5832 5832 5833 5833 5833 5832 5829 5829 5829 5828 5828 5829 5830 5830 5830 5829 5829 5828 5827 5826 5826 5824 5823 5822 5821 5820 5819 5818 5817 5816 5815 5815 5815 5815 5815 5815 5816 5816 5817 5818 5818 5819 5820 5820 5821 5822 5823
5827 5829 5830 5829 5829 5829 5829 5828 5827 5826 5826 5825 5824 5824 5827 5826 5826 5825 5824 5823 5822 5822 5821 5819 5818 5817 5816 5815 5814 5813 5812 5811 5810 5810 5809 5809 5809 5810 5810 5811 5811 5812 5812 5813 5813 5814 5814 5815 5816
5825 5826 5828 5827 5826 5824 5824 5823 5823 5820 5821 5821 5821 5822 5823 5822 5821 5820 5819 5818 5817 5816 5815 5814 5813 5812 5811 5810 5808 5807 5807 5806 5805 5804 5804 5804 5804 5804 5805 5804 5805 5805 5805 5806 5806 5807 5808 5808 5809
5822 5823 5824 5824 5824 5823 5822 5820 5818 5816 5817 5818 5818 5818 5819 5818 5817 5816 5814 5813 5812 5811 5810 5808 5807 5806 5805 5804 5803 5802 5801 5800 5799 5799 5798 5798 5798 5798 5798 5798 5798 5798 5798 5799 5799 5800 5800 5801 5801
5821 5820 5821 5821 5820 5819 5819 5816 5814 5814 5814 5815 5815 5814 5815 5814 5813 5811 5809 5808 5806 5805 5803 5802 5801 5799 5798 5797 5796 5795 5794 5793 5792 5792 5791 5791 5791 5791 5791 5790 5790 5790 5791 5791 5791 5792 5792 5793 5794
5818 5819 5817 5817 5817 5817 5816 5815 5810 5810 5811 5811 5810 5810 5810 5809 5807 5805 5804 5802 5800 5798 5797 5795 5794 5793 5791 5790 5789 5788 5787 5786 5786 5785 5784 5784 5784 5784 5783 5783 5783 5783 5783 5783 5783 5783 5784 5785 5785
5814 5815 5815 5815 5815 5814 5813 5813 5808 5807 5808 5808 5807 5806 5804 5803 5801 5799 5797 5795 5793 5791 5790 5788 5787 5786 5784 5783 5782 5781 5780 5780 5779 5778 5777 5777 5776 5776 5776 5775 5775 5775 5774 5774 5774 5775 5775 5776 5777